Location: Graswijk
(52.9667°N, 6.5500°E)
Time: 08:14:16
(UTC+00:00)

Cosmos 1271 Rocket - Pass Details

Date: 15 May 2026
Orbit: 421 x 448 km, 81.2° (Epoch: 5 June)

Event Time Altitude Azimuth Distance (km) Brightness Sun altitude
Exits shadow 22:05:23 30° 122° (ESE) 816 3.3 -15.7°
Maximum altitude 22:06:05 34° 95° (E) 755 3.3 -15.7°
Drops below altitude 10° 22:09:10 10° 30° (NNE) 1,555 5.7 -15.9°
Sets 22:11:20 0° 21° (NNE) 2,423 6.9 -16.0°
